******** Week 362 almanac for PRN-1 ******** ID: 1 Health: 0 Eccentricity: 0.001626014709 Time of Applicability(s): 319488 Orbital Inclination(rad): 0.9581291938 Rate of Right Ascen(r/s): -7.806039438e-09 SQRT(A) (m 1/2): 5153.57666 Right Ascen at Week(rad): 2.885491267 Argument of Perigee(rad): 0.1100882135 Mean Anom(rad): 1.088976557 Af0(s): 0.0002494661987 Af1(s/s): -7.275958e-12 week: 362 ******** Week 362 almanac for PRN-2 ******** ID: 2 Health: 0 Eccentricity: 0.01687049866 Time of Applicability(s): 319488 Orbital Inclination(rad): 0.9632824105 Rate of Right Ascen(r/s): -7.794610391e-09 SQRT(A) (m 1/2): 5153.540039 Right Ascen at Week(rad): 2.723096031 Argument of Perigee(rad): -0.8026131283 Mean Anom(rad): 2.570688149 Af0(s): 4.748148193e-05 Af1(s/s): 7.275958e-12 week: 362 ******** Week 362 almanac for PRN-3 ******** ID: 3 Health: 0 Eccentricity: 0.006556987762 Time of Applicability(s): 319488 Orbital Inclination(rad): 0.9935845232 Rate of Right Ascen(r/s): -7.611745631e-09 SQRT(A) (m 1/2): 5153.576172 Right Ascen at Week(rad): -2.410583772 Argument of Perigee(rad): 1.203309433 Mean Anom(rad): -1.019389781 Af0(s): 0.0004228112915 Af1(s/s): -1.455192e-11 week: 362 ******** Week 362 almanac for PRN-4 ******** ID: 4 Health: 0 Eccentricity: 0.00372838974 Time of Applicability(s): 319488 Orbital Inclination(rad): 0.9704250086 Rate of Right Ascen(r/s): -8.228914196e-09 SQRT(A) (m 1/2): 5153.666016 Right Ascen at Week(rad): -1.340104492 Argument of Perigee(rad): -2.87285128 Mean Anom(rad): 1.947036949 Af0(s): 3.919106445e-05 Af1(s/s): 3.637979e-12 week: 362 ******** Week 362 almanac for PRN-5 ******** ID: 5 Health: 0 Eccentricity: 0.005430698395 Time of Applicability(s): 319488 Orbital Inclination(rad): 0.9801502071 Rate of Right Ascen(r/s): -7.737465153e-09 SQRT(A) (m 1/2): 5153.668457 Right Ascen at Week(rad): -2.470520626 Argument of Perigee(rad): 1.417509103 Mean Anom(rad): 2.617916855 Af0(s): -0.0001823891846 Af1(s/s): 0 week: 362 ******** Week 362 almanac for PRN-6 ******** ID: 6 Health: 0 Eccentricity: 0.003839492798 Time of Applicability(s): 319488 Orbital Inclination(rad): 0.9869752232 Rate of Right Ascen(r/s): -7.554600394e-09 SQRT(A) (m 1/2): 5153.605469 Right Ascen at Week(rad): 2.83648103 Argument of Perigee(rad): -0.5539655534 Mean Anom(rad): 0.2867821276 Af0(s): -0.0004838589111 Af1(s/s): 0 week: 362 ******** Week 362 almanac for PRN-7 ******** ID: 7 Health: 0 Eccentricity: 0.02058696747 Time of Applicability(s): 319488 Orbital Inclination(rad): 0.9513041777 Rate of Right Ascen(r/s): -7.863184676e-09 SQRT(A) (m 1/2): 5153.573242 Right Ascen at Week(rad): -0.3313716834 Argument of Perigee(rad): -1.987215186 Mean Anom(rad): -0.5668208816 Af0(s): -0.0001281246338 Af1(s/s): -3.637979e-12 week: 362 ******** Week 362 almanac for PRN-8 ******** ID: 8 Health: 0 Eccentricity: 0.01158714294 Time of Applicability(s): 319488 Orbital Inclination(rad): 0.9429691493 Rate of Right Ascen(r/s): -8.537498478e-09 SQRT(A) (m 1/2): 5153.627441 Right Ascen at Week(rad): 1.715411842 Argument of Perigee(rad): 0.5300330562 Mean Anom(rad): 2.25310469 Af0(s): 0.0003768371582 Af1(s/s): -7.275958e-12 week: 362 ******** Week 362 almanac for PRN-9 ******** ID: 9 Health: 0 Eccentricity: 0.003341197968 Time of Applicability(s): 319488 Orbital Inclination(rad): 0.9645946831 Rate of Right Ascen(r/s): -8.308917528e-09 SQRT(A) (m 1/2): 5153.707031 Right Ascen at Week(rad): -1.404486744 Argument of Perigee(rad): 2.063961039 Mean Anom(rad): 2.846655637 Af0(s): 0.0006052004761 Af1(s/s): -3.637979e-12 week: 362 ******** Week 362 almanac for PRN-10 ******** ID: 10 Health: 0 Eccentricity: 0.01092290878 Time of Applicability(s): 319488 Orbital Inclination(rad): 0.9931171384 Rate of Right Ascen(r/s): -7.600316584e-09 SQRT(A) (m 1/2): 5153.606934 Right Ascen at Week(rad): -2.413094093 Argument of Perigee(rad): -2.256016108 Mean Anom(rad): -2.011446166 Af0(s): -0.0004665244019 Af1(s/s): 0 week: 362 ******** Week 362 almanac for PRN-11 ******** ID: 11 Health: 0 Eccentricity: 0.002213001251 Time of Applicability(s): 319488 Orbital Inclination(rad): 0.9638456691 Rate of Right Ascen(r/s): -7.771752296e-09 SQRT(A) (m 1/2): 5153.537109 Right Ascen at Week(rad): 2.854916887 Argument of Perigee(rad): -2.308454208 Mean Anom(rad): 1.397243029 Af0(s): -0.0003188042358 Af1(s/s): 1.455192e-11 week: 362 ******** Week 362 almanac for PRN-12 ******** ID: 12 Health: 0 Eccentricity: 0.008991718292 Time of Applicability(s): 319488 Orbital Inclination(rad): 0.9592497188 Rate of Right Ascen(r/s): -7.966046103e-09 SQRT(A) (m 1/2): 5153.71582 Right Ascen at Week(rad): 0.7860988664 Argument of Perigee(rad): 1.56595133 Mean Anom(rad): -1.243335995 Af0(s): -0.0004800905395 Af1(s/s): 0 week: 362 ******** Week 362 almanac for PRN-13 ******** ID: 13 Health: 0 Eccentricity: 0.01003313065 Time of Applicability(s): 319488 Orbital Inclination(rad): 0.9760516021 Rate of Right Ascen(r/s): -8.171768958e-09 SQRT(A) (m 1/2): 5153.61377 Right Ascen at Week(rad): -1.229100609 Argument of Perigee(rad): 0.9953614096 Mean Anom(rad): 2.013792827 Af0(s): 0.0005396308105 Af1(s/s): 0 week: 362 ******** Week 362 almanac for PRN-14 ******** ID: 14 Health: 0 Eccentricity: 0.006807804108 Time of Applicability(s): 319488 Orbital Inclination(rad): 0.942633591 Rate of Right Ascen(r/s): -8.080336578e-09 SQRT(A) (m 1/2): 5153.603516 Right Ascen at Week(rad): 0.7312084947 Argument of Perigee(rad): -2.743884916 Mean Anom(rad): -1.388584052 Af0(s): 0.0005848512695 Af1(s/s): 0 week: 362 ******** Week 362 almanac for PRN-15 ******** ID: 15 Health: 0 Eccentricity: 0.01662445068 Time of Applicability(s): 319488 Orbital Inclination(rad): 0.9425077566 Rate of Right Ascen(r/s): -8.560356573e-09 SQRT(A) (m 1/2): 5153.635254 Right Ascen at Week(rad): -1.548981668 Argument of Perigee(rad): 1.504707447 Mean Anom(rad): 1.257896454 Af0(s): 0.0003127748413 Af1(s/s): 3.637979e-12 week: 362 ******** Week 362 almanac for PRN-16 ******** ID: 16 Health: 0 Eccentricity: 0.01502752304 Time of Applicability(s): 319488 Orbital Inclination(rad): 0.9583568941 Rate of Right Ascen(r/s): -8.023191341e-09 SQRT(A) (m 1/2): 5153.605957 Right Ascen at Week(rad): 0.8030471819 Argument of Perigee(rad): 0.9316562661 Mean Anom(rad): -2.995573488 Af0(s): 0.0001801281616 Af1(s/s): 7.275958e-12 week: 362 ******** Week 362 almanac for PRN-17 ******** ID: 17 Health: 0 Eccentricity: 0.01262950897 Time of Applicability(s): 319488 Orbital Inclination(rad): 0.9586385234 Rate of Right Ascen(r/s): -8.366062766e-09 SQRT(A) (m 1/2): 5153.538574 Right Ascen at Week(rad): 1.82041425 Argument of Perigee(rad): -1.119382408 Mean Anom(rad): 2.196266133 Af0(s): -7.159906006e-05 Af1(s/s): -1.091394e-11 week: 362 ******** Week 362 almanac for PRN-18 ******** ID: 18 Health: 0 Eccentricity: 0.005784988403 Time of Applicability(s): 319488 Orbital Inclination(rad): 0.9719290288 Rate of Right Ascen(r/s): -7.703178011e-09 SQRT(A) (m 1/2): 5153.592773 Right Ascen at Week(rad): 2.8312237 Argument of Perigee(rad): -2.866248721 Mean Anom(rad): 0.2097156968 Af0(s): -0.0003150358643 Af1(s/s): 1.091394e-11 week: 362 ******** Week 362 almanac for PRN-19 ******** ID: 19 Health: 0 Eccentricity: 0.01119613647 Time of Applicability(s): 319488 Orbital Inclination(rad): 0.957817604 Rate of Right Ascen(r/s): -8.354633718e-09 SQRT(A) (m 1/2): 5153.661133 Right Ascen at Week(rad): 1.864314338 Argument of Perigee(rad): 2.937870569 Mean Anom(rad): -2.289392923 Af0(s): 0.0005486749023 Af1(s/s): 0 week: 362 ******** Week 362 almanac for PRN-20 ******** ID: 20 Health: 0 Eccentricity: 0.002261161804 Time of Applicability(s): 319488 Orbital Inclination(rad): 0.9599987329 Rate of Right Ascen(r/s): -8.354633718e-09 SQRT(A) (m 1/2): 5153.693848 Right Ascen at Week(rad): -1.398948909 Argument of Perigee(rad): -1.981758245 Mean Anom(rad): -1.273552721 Af0(s): 4.672780762e-05 Af1(s/s): 2.182787e-11 week: 362 ******** Week 362 almanac for PRN-21 ******** ID: 21 Health: 0 Eccentricity: 0.0007786750793 Time of Applicability(s): 319488 Orbital Inclination(rad): 0.9629947891 Rate of Right Ascen(r/s): -7.954617056e-09 SQRT(A) (m 1/2): 5153.723145 Right Ascen at Week(rad): -2.404817113 Argument of Perigee(rad): -0.2776014623 Mean Anom(rad): -1.580394943 Af0(s): 0.0003233262817 Af1(s/s): 3.637979e-12 week: 362 ******** Week 362 almanac for PRN-22 ******** ID: 22 Health: 0 Eccentricity: 0.01205921173 Time of Applicability(s): 319488 Orbital Inclination(rad): 0.9577996276 Rate of Right Ascen(r/s): -8.000333246e-09 SQRT(A) (m 1/2): 5153.574219 Right Ascen at Week(rad): 0.8064012669 Argument of Perigee(rad): -0.9937315551 Mean Anom(rad): 2.843714633 Af0(s): -2.562492676e-05 Af1(s/s): 7.275958e-12 week: 362 ******** Week 362 almanac for PRN-23 ******** ID: 23 Health: 0 Eccentricity: 0.006051063538 Time of Applicability(s): 319488 Orbital Inclination(rad): 0.9881317009 Rate of Right Ascen(r/s): -7.611745631e-09 SQRT(A) (m 1/2): 5153.663086 Right Ascen at Week(rad): -2.445247768 Argument of Perigee(rad): -2.740168308 Mean Anom(rad): -0.9324932893 Af0(s): 0.0004944103516 Af1(s/s): 3.637979e-12 week: 362 ******** Week 362 almanac for PRN-24 ******** ID: 24 Health: 0 Eccentricity: 0.01793241501 Time of Applicability(s): 319488 Orbital Inclination(rad): 0.9352453163 Rate of Right Ascen(r/s): -8.080336578e-09 SQRT(A) (m 1/2): 5153.597168 Right Ascen at Week(rad): -0.4401229069 Argument of Perigee(rad): 1.13759094 Mean Anom(rad): 0.4149080977 Af0(s): -6.029394531e-05 Af1(s/s): 1.818989e-11 week: 362 ******** Week 362 almanac for PRN-25 ******** ID: 25 Health: 0 Eccentricity: 0.01291704178 Time of Applicability(s): 319488 Orbital Inclination(rad): 0.9476849418 Rate of Right Ascen(r/s): -8.011762293e-09 SQRT(A) (m 1/2): 5153.668945 Right Ascen at Week(rad): 0.6921024708 Argument of Perigee(rad): 1.159435935 Mean Anom(rad): -1.368783866 Af0(s): 0.0003451828369 Af1(s/s): -3.637979e-12 week: 362 ******** Week 362 almanac for PRN-26 ******** ID: 26 Health: 0 Eccentricity: 0.01100492477 Time of Applicability(s): 319488 Orbital Inclination(rad): 0.9285041898 Rate of Right Ascen(r/s): -8.171768958e-09 SQRT(A) (m 1/2): 5153.673828 Right Ascen at Week(rad): 0.6172823332 Argument of Perigee(rad): 0.7114652332 Mean Anom(rad): -2.189039271 Af0(s): -0.0002705690796 Af1(s/s): -3.637979e-12 week: 362 ******** Week 362 almanac for PRN-27 ******** ID: 27 Health: 0 Eccentricity: 0.01437950134 Time of Applicability(s): 319488 Orbital Inclination(rad): 0.952065176 Rate of Right Ascen(r/s): -8.423208003e-09 SQRT(A) (m 1/2): 5153.604004 Right Ascen at Week(rad): 1.747595852 Argument of Perigee(rad): 0.8866480114 Mean Anom(rad): 2.356967099 Af0(s): -5.727924805e-05 Af1(s/s): -1.455192e-11 week: 362 ******** Week 362 almanac for PRN-28 ******** ID: 28 Health: 0 Eccentricity: 0.000431060791 Time of Applicability(s): 319488 Orbital Inclination(rad): 0.9622277987 Rate of Right Ascen(r/s): -7.806039438e-09 SQRT(A) (m 1/2): 5153.760742 Right Ascen at Week(rad): -0.3569329116 Argument of Perigee(rad): -0.0952247786 Mean Anom(rad): -0.154951534 Af0(s): -0.0004544656128 Af1(s/s): 7.275958e-12 week: 362 ******** Week 362 almanac for PRN-29 ******** ID: 29 Health: 0 Eccentricity: 0.003417491913 Time of Applicability(s): 319488 Orbital Inclination(rad): 0.9612990213 Rate of Right Ascen(r/s): -8.320346576e-09 SQRT(A) (m 1/2): 5153.689453 Right Ascen at Week(rad): 1.837192539 Argument of Perigee(rad): 2.743443747 Mean Anom(rad): 2.214460808 Af0(s): -0.0002818741943 Af1(s/s): 7.275958e-12 week: 362 ******** Week 362 almanac for PRN-30 ******** ID: 30 Health: 0 Eccentricity: 0.008123874664 Time of Applicability(s): 319488 Orbital Inclination(rad): 0.9365635811 Rate of Right Ascen(r/s): -8.034620388e-09 SQRT(A) (m 1/2): 5153.702148 Right Ascen at Week(rad): -0.3405972896 Argument of Perigee(rad): -2.308544838 Mean Anom(rad): -0.7555327262 Af0(s): 0.0001236025879 Af1(s/s): 1.455192e-11 week: 362 ******** Week 362 almanac for PRN-31 ******** ID: 31 Health: 0 Eccentricity: 0.01084089279 Time of Applicability(s): 319488 Orbital Inclination(rad): 0.9550792086 Rate of Right Ascen(r/s): -7.828897533e-09 SQRT(A) (m 1/2): 5153.532227 Right Ascen at Week(rad): -0.3070927673 Argument of Perigee(rad): 0.9384876488 Mean Anom(rad): -1.657317937 Af0(s): -0.0001273709595 Af1(s/s): 3.637979e-12 week: 362 ******** Week 362 almanac for PRN-32 ******** ID: 32 Health: 0 Eccentricity: 0.009376525879 Time of Applicability(s): 319488 Orbital Inclination(rad): 0.9676386763 Rate of Right Ascen(r/s): -8.251772291e-09 SQRT(A) (m 1/2): 5153.677734 Right Ascen at Week(rad): -1.38742383 Argument of Perigee(rad): -1.991506662 Mean Anom(rad): 2.923669262 Af0(s): -3.391534424e-05 Af1(s/s): 1.818989e-11 week: 362